Weather Roundup
Issued by NWS Chicago, IL

Home | Current Version | Previous Version | Graphics & Text | Print | Product List | Glossary On
Versions: 1 2 3 4 5 6 7 8 9 10 11 12 13 14 15 16 17 18 19 20 21 22 23 24 25 26 27 28 29 30 31 32 33 34 35 36 37 38 39 40 41 42 43 44 45 46 47 48 49 50
000
NZUS59 KLOT 010600
HRRLOT

CHICAGO AREA WEATHER ROUNDUP
NATIONAL WEATHER SERVICE CHICAGO/ROMEOVILLE IL
100 AM CDT FRI AUG 01 2014

NOTE: "FAIR" INDICATES FEW OR NO CLOUDS BELOW 12,000 FEET WITH NO
SIGNIFICANT WEATHER AND/OR OBSTRUCTIONS TO VISIBILITY.

* THESE STATIONS ARE NOT UNDER NWS QUALITY CONTROL. THEY ALSO MAY NOT
  REPORT WEATHER SUCH AS PRECIPITATION OR FOG.

ILZ005-006-012>014-019>023-010700-
NORTHEAST ILLINOIS

CITY           SKY/WX    TMP DP  RH WIND       PRES   REMARKS
OHARE          CLEAR     67  57  70 SW5       30.04S
6HR MIN TEMP:  67; 6HR MAX TEMP:  80;

MIDWAY         CLEAR     72  62  71 SW6       30.05R
6HR MIN TEMP:  72; 6HR MAX TEMP:  82;

AURORA         CLEAR     61  57  87 CALM      30.06S
6HR MIN TEMP:  60; 6HR MAX TEMP:  77;

WAUKEGAN       CLEAR     66  57  72 CALM      30.03F
6HR MIN TEMP:  64; 6HR MAX TEMP:  78;

DUPAGE AIRPORT CLEAR     63  59  87 S3        30.05S
6HR MIN TEMP:  63; 6HR MAX TEMP:  79;

WHEELING       CLEAR     67  58  72 CALM      30.06S
6HR MIN TEMP:  67; 6HR MAX TEMP:  80;

NORTHERLY IS     N/A     73  60  63 SW2         N/A
$$

WIZ051-052-058>065-066-070>072-010700-
SOUTHEAST WISCONSIN

CITY           SKY/WX    TMP DP  RH WIND       PRES   REMARKS
MILWAUKEE      CLEAR     67  58  72 SW6       30.02F
6HR MIN TEMP:  67; 6HR MAX TEMP:  80;

KENOSHA*       PTCLDY    62  58  86 W6        30.04S
RACINE*        CLEAR     66  58  75 SW6       30.05S
$$

INZ001>003-010>013-019-020-010700-
NORTHWEST INDIANA

CITY           SKY/WX    TMP DP  RH WIND       PRES   REMARKS
GARY*          NOT AVBL
MICHIGAN CITY* NOT AVBL
RENSSELAER*    NOT AVBL
VALPARAISO     PTCLDY    65  61  87 CALM      30.07S
$$

LMZ740>746-010700-
SOUTHERN LAKE MICHIGAN

STATION/POSITION TIME  SKY/WX   TEMP WIND        PRES    VSBY
                                AIR  DIR/SP/G
                 (UTC)          (F)  (DEG/KT/KT) (MB)    (MI)
HARRISON CRIB    0500            74  230/  5/  6   N/A
BURNHAM HARBOR   0600            73  230/  4/  6   N/A
CALUMET HARBOR   0500            71  220/  2/  3 1016.4R
BURNS HARBOR     NOT AVBL
MICHIGAN CITY    0500            71  190/  7/  8   N/A
$$

ABBREVIATIONS USED IN REMARKS
   TC - TEMPERATURE IN CELSIUS
  WCI - WIND CHILL INDEX
   HX - HEAT INDEX
  VSB - VISIBILITY
$$



USA.gov is the U.S. government's official web portal to all federal, state and local government web resources and services.